DW8065 Weather Reports


Display with metric or nautical units.
time (UTC)temp
F
wind
direction
speed
MPH
gust
MPH
rain 1hr
in
rain 24hr
in
rain mn
in
humidity
%
barometer
mb
20260830193034 71 328 1.0 5.0 0.00 0.03 0.03 68 1016.7
20260830191532 71 301 2.0 6.0 0.00 0.03 0.03 73 1016.8
20260830190024 70 348 1.0 3.0 0.00 0.03 0.03 77 1017.0
20260830184534 70 7 1.0 3.0 0.00 0.03 0.03 76 1017.2
20260830183021 69 360 0.0 1.0 0.00 0.03 0.03 79 1017.3
20260830181519 68 346 0.0 2.0 0.00 0.03 0.03 83 1017.5
20260830180017 67 300 0.0 3.0 0.00 0.03 0.03 84 1017.8
20260830174517 66 328 1.0 2.0 0.00 0.03 0.03 83 1017.9
20260830173014 66 335 1.0 3.0 0.01 0.03 0.03 85 1018.1
20260830171512 65 287 3.0 5.0 0.02 0.03 0.03 86 1018.3
20260830170011 65 302 0.0 4.0 0.02 0.03 0.03 87 1018.5
20260830164510 65 204 0.0 1.0 0.03 0.03 0.03 85 1018.8
20260830163012 65 243 0.0 4.0 0.02 0.02 0.02 85 1019.0
20260830161509 66 298 0.0 5.0 0.01 0.01 0.01 82 1019.0
20260830160010 67 259 1.0 4.0 0.01 0.01 0.01 81 1019.1
20260830154506 68 201 0.0 4.0 0.00 0.00 0.00 72 1018.6
20260830153005 69 283 0.0 3.0 0.00 0.00 0.00 70 1019.1
20260830151503 70 311 0.0 5.0 0.00 0.00 0.00 69 1019.2
20260830150006 70 223 0.0 5.0 0.00 0.00 0.00 68 1019.1
20260830144600 69 297 0.0 7.0 0.00 0.00 0.00 71 1019.1
20260830143059 69 298 2.0 5.0 0.00 0.00 0.00 71 1019.1
20260830141555 66 288 0.0 1.0 0.00 0.00 0.00 80 1019.1
20260830140049 64 314 0.0 0.0 0.00 0.00 0.00 84 1019.2
20260830134546 63 321 0.0 1.0 0.00 0.00 0.00 84 1019.1
20260830133047 63 302 0.0 1.0 0.00 0.00 0.00 85 1019.3
20260830131541 62 312 0.0 0.0 0.00 0.00 0.00 85 1019.1